Wind_Speed
28 25 25 27 26 25 23 20 18 17 16 14 12 13 12 8 6 8 7 9 9 9 8 11 17 16 17 12 10 10 20 22 19 16 6 12 16 16 16 15 16 17 16 14 13
32 28 24 24 26 27 27 25 23 21 20 17 15 15 15 13 9 9 6 9 10 10 13 19 18 16 13 12 13 15 19 21 17 12 13 8 11 16 14 19 18 19 15 14 12
30 31 27 24 24 25 27 28 27 25 23 20 18 17 16 16 12 11 8 7 10 13 14 17 19 13 10 8 10 7 16 9 15 13 10 17 16 21 19 17 19 20 17 15 14
29 29 30 26 24 23 24 26 26 25 23 22 20 18 18 17 15 16 11 10 9 14 15 17 17 16 12 9 10 10 11 10 21 22 17 16 18 18 17 14 16 17 18 17 13
28 30 28 28 25 23 22 23 24 24 23 22 21 19 19 17 20 19 16 12 11 12 10 14 19 19 20 9 3 15 5 18 24 25 19 19 23 14 11 16 20 17 18 15 15
26 29 29 27 26 24 22 22 22 22 22 21 21 19 19 18 19 18 17 15 13 14 11 13 20 13 17 6 1 8 9 15 22 21 19 17 19 21 15 22 21 19 17 15 16
26 26 31 28 27 25 23 22 21 21 21 20 20 18 19 17 21 21 21 17 16 15 11 14 15 13 20 18 14 3 7 14 22 21 19 15 13 14 11 20 19 20 17 18 21
28 26 27 31 27 27 24 23 22 20 20 20 19 17 20 16 19 18 22 19 18 12 10 11 14 18 19 14 17 4 5 12 16 17 16 14 11 8 13 17 17 19 20 17 21
28 27 27 29 30 27 26 24 23 21 19 18 17 20 20 19 19 17 18 17 16 11 11 16 17 21 17 13 9 5 5 11 10 15 21 19 17 7 11 13 16 14 16 17 17
27 26 26 27 32 28 27 25 24 22 19 17 19 19 18 20 19 17 18 19 17 17 17 25 25 19 13 14 10 6 11 9 6 13 21 22 14 12 5 8 8 10 12 16 18
24 26 26 26 29 30 28 28 26 21 19 20 19 18 17 17 19 20 22 20 17 19 28 30 29 23 12 14 9 2 5 2 9 11 17 13 8 4 10 12 11 11 12 14 13
25 24 25 23 27 31 30 29 24 21 19 14 15 18 18 15 16 23 22 19 19 29 32 29 22 13 9 7 10 8 8 6 8 12 11 14 1 8 12 17 17 17 17 13 10
24 24 26 23 25 30 29 27 25 23 20 16 15 15 17 17 18 22 20 19 21 27 32 31 22 14 6 6 14 16 12 5 10 16 13 12 9 3 12 14 15 15 17 11 6
20 24 28 25 24 26 28 30 27 26 22 20 14 14 13 16 15 20 19 23 26 34 35 32 22 9 6 3 17 15 13 13 14 13 8 12 11 0 7 8 19 14 18 6 15
18 22 25 27 25 27 29 29 25 23 20 18 15 14 17 16 18 18 17 24 27 35 32 26 15 8 6 8 18 16 16 7 6 2 14 14 18 11 11 12 22 21 17 15 16
18 21 25 27 24 25 26 24 23 20 16 14 16 16 14 14 18 22 20 25 33 34 31 25 17 13 3 6 6 15 8 8 3 9 11 12 18 9 11 8 17 18 14 8 5
18 21 24 25 25 25 24 22 20 20 16 11 14 14 13 14 18 22 23 22 25 28 21 13 11 10 9 7 6 8 20 9 5 1 9 14 20 19 15 14 21 14 5 2 11
18 21 24 25 25 25 23 19 20 17 18 15 13 15 15 17 19 21 18 16 20 26 23 16 8 1 4 6 7 18 20 6 5 3 15 23 22 21 24 23 25 14 10 7 5
18 22 25 27 27 25 24 23 23 25 24 16 11 17 18 20 21 19 14 14 15 16 18 18 11 5 4 3 5 5 16 11 7 9 15 22 27 26 16 14 10 9 16 10 10
18 23 24 27 28 30 30 24 23 22 20 19 4 12 14 21 21 17 15 14 18 19 16 11 9 7 5 9 13 8 18 13 8 12 14 21 12 10 15 16 17 23 29 8 9
20 24 27 29 32 39 32 33 31 23 23 23 15 5 14 12 12 12 11 14 17 22 19 15 9 6 6 1 3 1 11 16 14 16 14 23 23 13 18 16 21 15 18 14 18
22 26 28 33 44 38 34 39 32 30 24 15 17 18 8 8 2 2 15 11 11 27 24 18 16 13 15 13 11 9 15 14 15 18 16 16 23 20 20 19 18 17 21 18 18
22 25 30 40 43 36 37 38 35 37 31 26 21 21 20 19 15 9 8 9 11 12 13 12 23 20 19 18 17 17 21 20 21 22 25 25 26 26 25 24 24 23 27 27 33
24 28 32 47 45 38 40 33 34 41 35 22 29 25 18 14 19 17 17 14 13 16 19 20 16 17 29 28 28 26 27 31 29 24 29 32 34 29 35 34 34 35 34 37 43
27 28 33 50 43 35 33 31 35 36 25 26 20 24 25 24 24 24 25 23 22 24 27 26 24 21 25 32 37 38 35 29 20 31 38 35 40 32 31 33 34 34 40 44 48
26 27 33 46 48 37 35 33 32 35 37 35 27 20 25 27 23 22 31 34 26 25 26 28 24 19 29 33 36 38 37 32 28 23 29 28 40 37 35 35 37 37 42 47 47
28 29 32 38 46 45 39 33 29 26 37 37 36 29 32 29 25 24 29 28 20 22 17 12 17 11 11 17 36 39 38 38 40 38 28 23 24 26 34 38 39 42 43 43 43
Wind_Direction
232 232 231 231 231 232 233 234 233 232 234 227 221 218 216 202 175 189 180 159 163 160 157 115 131 119 82 59 59 19 28 346 335 2 348 49 11 20 49 40 44 46 45 48 37
229 229 229 228 230 231 233 233 235 236 237 236 226 219 218 208 199 210 187 158 173 160 136 139 121 102 108 74 28 14 353 348 339 14 9 46 23 21 38 49 43 36 36 42 34
226 226 227 228 227 229 230 232 235 238 239 237 232 219 218 211 211 229 211 188 182 175 183 159 136 141 128 81 74 351 350 353 2 2 33 50 68 34 20 44 42 34 29 38 40
223 223 224 224 225 225 228 229 230 232 234 234 229 221 217 211 211 221 221 210 204 192 193 169 148 112 95 71 14 338 1 24 26 21 39 53 74 42 18 21 37 36 30 30 35
225 219 221 221 223 222 223 225 226 228 228 228 226 222 218 211 214 219 218 217 219 223 224 178 153 139 117 162 313 333 16 51 20 10 21 42 68 52 47 39 31 27 36 30 27
223 221 218 218 218 221 219 221 222 224 225 223 222 221 220 217 221 221 230 218 219 229 239 187 164 162 127 108 229 321 44 41 27 4 4 19 21 49 45 48 31 24 31 57 51
221 220 218 215 215 218 216 217 219 219 220 221 219 218 219 212 224 215 220 221 215 231 241 212 222 162 118 104 100 95 77 49 24 12 354 351 357 60 76 68 46 28 43 55 62
222 219 218 215 213 214 213 213 214 214 216 219 217 216 220 211 224 215 228 216 235 221 236 213 206 151 155 141 115 122 83 47 27 8 357 354 346 63 116 87 70 45 20 38 43
221 220 216 214 211 211 210 210 209 210 214 217 215 218 218 218 219 222 229 212 227 203 183 195 170 139 144 123 116 94 100 52 28 348 349 352 346 29 138 101 96 67 26 22 31
217 216 214 212 209 208 208 208 208 208 210 212 215 221 223 218 222 213 212 208 204 191 174 168 159 162 138 124 124 122 79 9 350 332 346 349 334 339 20 50 68 65 43 29 26
213 215 212 211 208 206 206 209 207 210 212 216 215 220 223 228 224 214 215 205 193 189 164 162 162 167 149 144 128 21 92 329 293 311 352 324 9 87 333 350 345 2 12 9 23
211 211 207 208 206 204 206 208 207 207 216 230 239 225 214 215 229 223 210 191 189 176 179 170 164 160 152 126 160 176 204 226 291 296 297 301 337 41 358 345 344 329 330 351 9
211 212 205 204 201 203 205 204 203 209 207 212 224 234 223 214 208 225 202 186 183 194 174 168 161 152 106 273 169 195 219 272 268 276 296 274 304 265 3 333 328 299 304 316 29
205 205 202 200 198 199 201 201 199 205 208 212 211 218 221 213 210 207 203 173 186 181 177 183 187 164 101 199 174 187 215 246 253 280 201 268 285 293 351 329 307 315 284 306 343
197 195 196 195 196 197 198 198 198 201 207 207 207 207 206 194 195 191 194 177 185 188 188 182 165 164 204 190 191 222 253 92 68 208 205 237 258 265 283 290 298 278 269 303 342
194 193 194 194 196 197 198 194 194 194 196 205 196 202 208 193 195 181 184 163 187 196 189 185 202 181 41 325 245 242 221 127 102 180 193 244 268 317 247 236 257 250 247 293 347
192 193 192 189 188 190 190 189 190 190 176 197 194 182 185 185 188 185 179 178 187 196 197 195 145 98 55 8 303 175 177 176 148 204 295 297 314 275 240 225 232 230 273 43 2
188 188 187 184 182 180 180 171 192 170 171 155 168 173 175 170 176 174 163 163 183 176 167 155 112 26 75 341 298 185 197 168 280 341 287 293 301 316 249 260 239 217 218 253 329
184 182 180 177 174 171 152 144 146 159 142 79 162 172 167 166 159 150 162 169 168 183 167 171 150 185 136 4 41 251 206 211 243 293 273 277 284 299 279 211 250 235 221 247 312
178 177 175 174 168 157 148 156 142 139 124 104 120 178 182 172 158 158 172 184 169 169 162 155 189 155 120 23 359 315 197 212 239 257 294 308 313 324 323 271 257 286 255 227 325
177 176 171 168 161 149 150 144 148 136 111 110 106 144 179 149 147 152 162 187 183 174 167 179 193 172 120 261 274 123 203 230 234 256 295 301 297 326 314 304 291 297 321 308 317
176 174 171 163 155 158 159 146 149 160 140 142 152 134 162 148 103 345 171 140 161 184 181 189 208 187 204 231 253 258 246 244 249 255 277 282 296 289 300 299 297 298 301 302 321
178 177 172 164 163 176 168 153 148 160 157 153 183 176 197 197 192 234 217 187 215 230 226 220 224 213 220 230 237 243 244 255 253 255 260 269 283 283 282 279 288 298 302 307 310
182 180 172 167 176 183 179 153 160 168 169 163 182 186 182 203 186 214 218 210 234 242 247 256 251 242 239 239 236 233 235 241 244 244 248 256 271 290 291 298 304 309 311 309 312
188 182 173 173 179 160 167 176 176 170 173 172 196 163 163 167 192 212 223 217 220 229 239 249 263 259 242 241 243 249 239 241 260 260 257 259 258 271 285 300 304 299 301 307 308
188 180 180 183 188 184 180 179 191 182 187 183 189 184 180 182 192 209 216 226 232 248 254 259 256 248 228 238 246 255 262 264 270 275 253 269 268 258 270 274 285 295 298 298 296
188 185 190 191 195 196 200 203 194 197 200 204 197 196 196 196 204 212 226 234 253 243 248 257 252 249 289 277 255 261 269 270 273 263 270 267 281 270 270 275 281 286 291 293 296
Height
5883 5886 5890 5892 5895 5898 5901 5903 5905 5907 5910 5912 5914 5916 5918 5920 5921 5921 5921 5924 5923 5924 5924 5922 5923 5923 5924 5922 5922 5921 5918 5925 5922 5922 5923 5918 5916 5915 5913 5912 5911 5909 5907 5906 5904
5878 5882 5885 5888 5891 5894 5897 5900 5903 5905 5907 5909 5911 5914 5915 5918 5920 5919 5921 5922 5921 5923 5924 5923 5923 5924 5925 5923 5919 5921 5925 5925 5922 5923 5920 5919 5920 5919 5915 5911 5910 5908 5907 5907 5905
5873 5877 5881 5884 5887 5890 5893 5896 5899 5902 5904 5906 5909 5911 5913 5916 5919 5918 5920 5921 5921 5922 5923 5922 5922 5922 5923 5924 5924 5928 5929 5925 5922 5920 5920 5920 5919 5916 5915 5912 5910 5910 5910 5908 5906
5867 5872 5876 5880 5883 5885 5889 5892 5895 5897 5900 5903 5906 5908 5910 5914 5917 5916 5919 5920 5920 5921 5920 5920 5920 5922 5926 5924 5925 5928 5929 5927 5923 5922 5920 5922 5920 5917 5915 5914 5911 5912 5910 5909 5908
5862 5866 5870 5875 5878 5881 5884 5887 5890 5893 5896 5899 5903 5905 5908 5911 5913 5914 5916 5919 5919 5919 5918 5919 5919 5918 5919 5924 5929 5928 5928 5927 5924 5923 5922 5922 5923 5921 5918 5915 5913 5911 5912 5911 5910
5857 5861 5865 5870 5874 5877 5880 5883 5886 5889 5892 5896 5899 5902 5905 5909 5911 5913 5915 5917 5917 5917 5917 5919 5920 5918 5921 5926 5928 5928 5928 5927 5927 5924 5922 5923 5923 5924 5922 5916 5917 5915 5913 5916 5913
5853 5856 5860 5865 5869 5873 5876 5879 5882 5885 5889 5892 5896 5899 5902 5905 5906 5909 5910 5915 5914 5916 5917 5918 5919 5920 5925 5926 5924 5930 5928 5927 5929 5927 5925 5923 5924 5925 5925 5921 5922 5920 5918 5916 5914
5848 5851 5855 5860 5865 5869 5872 5875 5879 5882 5886 5889 5893 5896 5897 5902 5902 5905 5906 5912 5913 5914 5917 5919 5920 5920 5923 5925 5924 5928 5928 5926 5929 5930 5928 5927 5926 5925 5926 5923 5925 5925 5923 5920 5916
5843 5847 5851 5855 5860 5864 5868 5872 5876 5879 5883 5886 5890 5892 5894 5897 5900 5902 5904 5908 5912 5914 5917 5918 5920 5921 5925 5925 5926 5927 5928 5928 5930 5931 5929 5927 5925 5923 5924 5924 5925 5926 5926 5922 5919
5838 5842 5846 5850 5855 5860 5865 5869 5872 5876 5880 5884 5886 5890 5892 5894 5896 5898 5900 5904 5908 5912 5913 5916 5920 5921 5924 5925 5925 5926 5928 5930 5931 5931 5929 5927 5925 5922 5921 5921 5923 5926 5925 5924 5921
5833 5838 5842 5846 5851 5856 5861 5865 5871 5876 5879 5881 5883 5885 5888 5891 5894 5894 5897 5901 5906 5910 5913 5914 5917 5920 5923 5924 5925 5928 5930 5930 5930 5930 5929 5929 5926 5926 5922 5921 5921 5924 5925 5925 5923
5829 5834 5838 5843 5847 5852 5856 5861 5869 5873 5876 5880 5882 5882 5884 5888 5891 5891 5894 5900 5904 5908 5909 5913 5917 5920 5922 5924 5926 5930 5929 5929 5929 5929 5931 5930 5927 5926 5925 5922 5922 5922 5924 5924 5924
5825 5830 5834 5839 5843 5848 5853 5858 5864 5867 5871 5875 5877 5880 5882 5884 5886 5890 5894 5898 5901 5906 5909 5912 5914 5916 5918 5922 5925 5926 5927 5928 5929 5929 5930 5928 5928 5926 5926 5923 5922 5920 5921 5922 5922
5822 5826 5831 5836 5842 5845 5849 5852 5859 5864 5869 5873 5875 5877 5881 5882 5885 5888 5892 5897 5900 5905 5908 5910 5912 5914 5915 5920 5924 5924 5924 5924 5926 5926 5928 5927 5926 5925 5927 5928 5918 5919 5920 5922 5923
5819 5823 5828 5833 5837 5841 5846 5851 5858 5863 5867 5871 5872 5875 5876 5879 5883 5886 5890 5894 5901 5904 5908 5911 5913 5915 5916 5919 5921 5923 5922 5924 5923 5922 5924 5924 5924 5924 5926 5925 5920 5918 5918 5919 5923
5817 5821 5826 5830 5835 5841 5846 5852 5857 5864 5865 5868 5870 5873 5876 5878 5882 5884 5889 5892 5899 5903 5905 5909 5911 5914 5917 5919 5920 5921 5923 5923 5923 5922 5923 5923 5922 5923 5922 5921 5917 5913 5913 5918 5921
5815 5819 5824 5828 5834 5839 5845 5851 5858 5861 5864 5867 5869 5872 5874 5878 5882 5884 5888 5891 5897 5903 5909 5911 5913 5913 5916 5918 5917 5918 5921 5921 5922 5921 5920 5918 5918 5921 5917 5916 5913 5913 5915 5916 5915
5813 5817 5822 5827 5832 5838 5845 5852 5856 5861 5863 5865 5869 5872 5876 5879 5882 5885 5889 5894 5900 5902 5905 5909 5912 5913 5914 5916 5916 5916 5918 5919 5918 5918 5917 5913 5913 5916 5914 5913 5910 5911 5911 5910 5909
5812 5816 5820 5825 5831 5838 5846 5852 5854 5858 5859 5864 5870 5871 5874 5878 5882 5885 5891 5895 5898 5902 5905 5907 5908 5911 5912 5915 5915 5915 5917 5916 5916 5914 5913 5912 5912 5911 5909 5908 5907 5907 5907 5906 5905
5811 5815 5820 5825 5832 5838 5846 5851 5853 5855 5859 5862 5871 5874 5877 5879 5881 5885 5890 5895 5897 5900 5902 5906 5908 5909 5911 5912 5911 5911 5915 5914 5914 5912 5910 5908 5910 5907 5907 5904 5908 5905 5901 5896 5896
5810 5815 5819 5825 5832 5838 5844 5848 5852 5856 5859 5865 5872 5875 5878 5879 5882 5886 5890 5894 5897 5899 5901 5903 5907 5909 5909 5910 5911 5912 5910 5910 5911 5909 5906 5904 5904 5904 5902 5901 5899 5901 5895 5899 5898
5809 5814 5819 5825 5832 5838 5843 5846 5850 5852 5858 5863 5869 5874 5878 5879 5883 5887 5888 5892 5895 5897 5899 5900 5904 5906 5907 5907 5908 5908 5908 5907 5908 5908 5902 5900 5899 5899 5896 5894 5896 5898 5898 5897 5895
5808 5813 5819 5823 5831 5835 5841 5845 5847 5852 5858 5859 5866 5871 5874 5875 5882 5885 5887 5890 5892 5895 5899 5902 5903 5904 5904 5905 5905 5905 5903 5903 5903 5904 5900 5897 5894 5896 5891 5891 5891 5892 5891 5891 5893
5807 5811 5818 5823 5826 5832 5840 5845 5848 5852 5855 5858 5864 5871 5872 5875 5879 5884 5886 5889 5892 5894 5895 5896 5898 5900 5901 5899 5899 5899 5900 5897 5898 5897 5895 5893 5889 5889 5885 5884 5882 5882 5882 5883 5883
5804 5810 5817 5822 5826 5831 5836 5843 5847 5851 5853 5859 5862 5863 5868 5872 5876 5879 5883 5885 5886 5888 5889 5892 5894 5893 5893 5893 5891 5890 5892 5894 5892 5889 5891 5893 5887 5883 5883 5882 5880 5881 5879 5877 5875
5803 5809 5815 5819 5822 5827 5833 5841 5847 5850 5852 5855 5863 5861 5867 5870 5873 5874 5876 5879 5884 5886 5886 5887 5888 5887 5887 5887 5886 5885 5885 5887 5885 5886 5885 5884 5885 5886 5884 5884 5883 5879 5874 5869 5864
5800 5806 5810 5816 5820 5827 5829 5834 5842 5847 5852 5853 5858 5861 5865 5868 5869 5871 5871 5875 5880 5880 5881 5882 5884 5885 5886 5886 5885 5883 5882 5880 5877 5879 5881 5880 5878 5878 5880 5880 5878 5873 5869 5864 5859